Weather History for KDAB - June, 2013

Change the Weather History Date:

Wednesday, June 19, 2013

  Actual Average Record
Temperature  
Mean Temperature 83 °F 80 °F  
Max Temperature 91 °F 89 °F 100 °F (1998)
Min Temperature 75 °F 72 °F 62 °F (1961)
Degree Days  
Heating Degree Days 0 0  
Month to date heating degree days 0 0  
Since 1 June heating degree days 0 0  
Since 1 July heating degree days 694 809  
Cooling Degree Days 18 15  
Month to date cooling degree days 305 274  
Year to date cooling degree days 957 875  
Since 1 June cooling degree days 305 274  
Growing Degree Days 32 (Base 50)    
Moisture  
Dew Point 73 °F    
Average Humidity 78    
Maximum Humidity 94    
Minimum Humidity 61    
Precipitation  
Precipitation 0.15 in 0.21 in 3.09 in (1966)
Month to date precipitation 6.13 3.65  
Year to date precipitation 20.96 18.72  
Sea Level Pressure  
Sea Level Pressure 30.02 in    
Wind  
Wind Speed 5 mph (South)    
Max Wind Speed 18 mph    
Max Gust Speed 28 mph    
Visibility 9 miles    
Events Rain , Thunderstorm    
T = Trace of Precipitation, MM = Missing Value Source: NWS Daily Summary

Daily Weather History Graph

Daily Weather History Graph

Search for Another Location

Airport or City:

Trip Planner

Search our weather history database for the weather conditions in past years. The results will help you decide how hot, cold, wet, or windy it might be!

Date:

Astronomy

Jun. 19, 2013 Rise Set
Actual Time 6:25 AM EDT 8:26 PM EDT
Civil Twilight 5:58 AM EDT 8:53 PM EDT
Nautical Twilight 5:25 AM EDT 9:26 PM EDT
Astronomical Twilight 4:50 AM EDT 10:01 PM EDT
Moon 4:29 PM EDT (6/19) 2:54 AM EDT (6/19)
Length of Visible Light 14h 55m
Length of Day
14h 00m
Waxing Gibbous, 80% of the Moon is Illuminated
Jun 19
Waxing Gibbous
Jun 23
Full
Jun 30
Last Quarter
Jul 8
New
Jul 15
First Quarter

Hourly Weather History & Observations

Time (EDT) Temp. Heat Index Dew Point Humidity Pressure Visibility Wind Dir Wind Speed Gust Speed Precip Events Conditions
12:53 AM 75.9 °F - 72.0 °F 87% 30.02 in 10.0 mi SSW 3.5 mph - N/A   Scattered Clouds
1:53 AM 75.9 °F - 72.0 °F 87% 30.02 in 10.0 mi Calm Calm - N/A   Partly Cloudy
2:53 AM 75.0 °F - 72.0 °F 90% 30.03 in 10.0 mi SW 4.6 mph - N/A   Partly Cloudy
3:53 AM 75.0 °F - 72.0 °F 90% 30.02 in 10.0 mi SSW 3.5 mph - N/A   Partly Cloudy
4:53 AM 75.0 °F - 73.0 °F 94% 30.03 in 10.0 mi Calm Calm - N/A   Scattered Clouds
5:53 AM 75.0 °F - 72.0 °F 90% 30.02 in 10.0 mi Calm Calm - N/A   Scattered Clouds
6:53 AM 75.0 °F - 73.0 °F 94% 30.01 in 7.0 mi SSE 3.5 mph - N/A   Scattered Clouds
7:53 AM 77.0 °F - 73.9 °F 90% 30.02 in 8.0 mi South 4.6 mph - N/A   Scattered Clouds
8:53 AM 81.0 °F 86.7 °F 75.0 °F 82% 30.04 in 10.0 mi SSW 5.8 mph - N/A   Scattered Clouds
9:53 AM 84.9 °F 93.3 °F 75.0 °F 72% 30.04 in 10.0 mi SSW 6.9 mph - N/A   Scattered Clouds
10:53 AM 86.0 °F 93.0 °F 73.0 °F 65% 30.04 in 10.0 mi SW 5.8 mph - N/A   Scattered Clouds
11:53 AM 88.0 °F 95.6 °F 73.0 °F 61% 30.04 in 10.0 mi SSW 8.1 mph - N/A   Mostly Cloudy
12:53 PM 89.1 °F 99.1 °F 75.0 °F 63% 30.03 in 10.0 mi South 3.5 mph - 0.01 in   Scattered Clouds
1:53 PM 84.9 °F 90.7 °F 72.0 °F 65% 30.03 in 10.0 mi North 11.5 mph 23.0 mph N/A   Mostly Cloudy
1:57 PM 82.4 °F 87.2 °F 71.6 °F 70% 30.03 in 10.0 mi North 12.7 mph - N/A Thunderstorm Thunderstorm
2:03 PM 82.4 °F 87.2 °F 71.6 °F 70% 30.03 in 9.0 mi North 8.1 mph - N/A Thunderstorm Thunderstorm
2:09 PM 78.8 °F - 71.6 °F 78% 30.03 in 1.8 mi NNW 15.0 mph 23.0 mph 0.02 in Rain , Thunderstorm Heavy Thunderstorms and Rain
2:18 PM 78.8 °F - 69.8 °F 74% 30.02 in 6.0 mi Variable 5.8 mph 27.6 mph 0.13 in Rain , Thunderstorm Light Thunderstorms and Rain
2:43 PM 78.8 °F - 73.4 °F 83% 30.02 in 10.0 mi ESE 5.8 mph - 0.13 in   Mostly Cloudy
2:53 PM 82.0 °F 88.6 °F 75.0 °F 79% 30.01 in 10.0 mi SSE 6.9 mph - 0.13 in   Mostly Cloudy
3:43 PM 86.0 °F 93.4 °F 73.4 °F 66% 29.99 in 10.0 mi Variable 3.5 mph - N/A Thunderstorm Thunderstorm
3:53 PM 87.1 °F 94.5 °F 73.0 °F 63% 29.99 in 10.0 mi West 4.6 mph - N/A Thunderstorm Thunderstorm
4:27 PM 87.8 °F 97.6 °F 75.2 °F 66% 29.99 in 10.0 mi NE 3.5 mph - 0.01 in   Mostly Cloudy
4:53 PM 88.0 °F 96.5 °F 73.9 °F 63% 29.98 in 10.0 mi Variable 5.8 mph - 0.01 in   Mostly Cloudy
5:53 PM 86.0 °F 91.5 °F 71.1 °F 61% 29.98 in 10.0 mi SE 9.2 mph - N/A   Mostly Cloudy
6:53 PM 86.0 °F 92.2 °F 72.0 °F 63% 29.99 in 10.0 mi Variable 3.5 mph - N/A   Scattered Clouds
7:53 PM 84.0 °F 89.0 °F 71.1 °F 65% 30.00 in 10.0 mi South 11.5 mph 17.3 mph N/A   Scattered Clouds
8:53 PM 82.0 °F 87.4 °F 73.0 °F 74% 30.01 in 10.0 mi South 5.8 mph - N/A   Scattered Clouds
9:53 PM 81.0 °F 86.2 °F 73.9 °F 79% 30.04 in 10.0 mi South 4.6 mph - N/A   Mostly Cloudy
10:53 PM 80.1 °F 84.5 °F 73.9 °F 81% 30.04 in 10.0 mi South 4.6 mph - N/A   Scattered Clouds
11:53 PM 78.1 °F - 72.0 °F 81% 30.05 in 10.0 mi SSW 6.9 mph - N/A   Scattered Clouds